Weather History for Savanna, IL

Change the Weather History Date:

Tuesday, January 8, 2013

  Actual Average (KCWI) Record (KCWI)
Temperature  
Mean Temperature 32 °F -  
Max Temperature 40 °F 24 °F 59 °F (2003)
Min Temperature 23 °F 6 °F -19 °F (1970)
Degree Days  
Heating Degree Days 34    
Moisture  
Dew Point 29 °F    
Average Humidity 82    
Maximum Humidity 91    
Minimum Humidity 72    
Precipitation  
Precipitation 0.00 in - - ()
Sea Level Pressure  
Sea Level Pressure 30.04 in    
Wind  
Wind Speed 7 mph (SSE)    
Max Wind Speed 20 mph    
Max Gust Speed 23 mph    
Visibility 9 miles    
Events      
Averages and records for this station are not official NWS values.
T = Trace of Precipitation, MM = Missing Value Source: NWS Daily Summary

Daily Weather History Graph

Daily Weather History Graph

Search for Another Location

Airport:

Trip Planner

Search our weather history database for the weather conditions in past years. The results will help you decide how hot, cold, wet, or windy it might be!

Date:

Astronomy

Jan. 08, 2013 Rise Set
Actual Time 7:28 AM CST 4:46 PM CST
Civil Twilight 6:57 AM CST 5:17 PM CST
Nautical Twilight 6:22 AM CST 5:52 PM CST
Astronomical Twilight 5:48 AM CST 6:26 PM CST
Moon 4:01 AM CST (1/8) 1:49 PM CST (1/8)
Length of Visible Light 10h 20m
Length of Day
9h 18m
Waning Crescent, 13% of the Moon is Illuminated
Jan 8
Waning Crescent
Jan 11
New
Jan 18
First Quarter
Jan 26
Full
Feb 3
Last Quarter

Hourly Weather History & Observations

Time (CST) Temp. Windchill Dew Point Humidity Pressure Visibility Wind Dir Wind Speed Gust Speed Precip Events Conditions
12:35 AM 30.2 °F - 27.0 °F 88% 30.07 in 10.0 mi Calm Calm - N/A   Clear
12:55 AM 29.3 °F 23.2 °F 27.0 °F 91% 30.06 in 7.0 mi SE 5.8 mph - N/A   Clear
1:15 AM 29.8 °F 23.9 °F 27.3 °F 90% 30.06 in 7.0 mi SE 5.8 mph - N/A   Clear
1:35 AM 29.8 °F 23.9 °F 27.3 °F 90% 30.07 in 7.0 mi SE 5.8 mph - N/A   Clear
1:55 AM 30.4 °F 23.6 °F 27.5 °F 89% 30.07 in 7.0 mi SSE 6.9 mph - N/A   Clear
2:15 AM 31.1 °F 24.5 °F 27.5 °F 87% 30.07 in 7.0 mi South 6.9 mph - N/A   Clear
2:35 AM 30.9 °F 24.3 °F 27.1 °F 86% 30.07 in 7.0 mi South 6.9 mph - N/A   Clear
2:55 AM 30.6 °F 23.8 °F 27.3 °F 88% 30.07 in 7.0 mi SSE 6.9 mph - N/A   Clear
3:15 AM 29.5 °F 23.4 °F 26.4 °F 88% 30.07 in 7.0 mi SSE 5.8 mph - N/A   Clear
3:35 AM 28.8 °F 20.2 °F 26.1 °F 90% 30.07 in 7.0 mi SSE 9.2 mph - N/A   Clear
3:55 AM 29.1 °F 22.1 °F 26.1 °F 88% 30.07 in 7.0 mi SSE 6.9 mph - N/A   Clear
4:15 AM 28.4 °F 23.3 °F 25.9 °F 90% 30.06 in 7.0 mi SE 4.6 mph - N/A   Clear
4:35 AM 28.2 °F 24.4 °F 25.3 °F 89% 30.07 in 7.0 mi SSE 3.5 mph - N/A   Clear
4:55 AM 28.8 °F 25.0 °F 26.1 °F 90% 30.06 in 7.0 mi SSE 3.5 mph - N/A   Clear
5:15 AM 29.3 °F 24.3 °F 26.1 °F 88% 30.06 in 7.0 mi SSE 4.6 mph - N/A   Clear
5:35 AM 25.9 °F 19.2 °F 23.2 °F 90% 30.06 in 7.0 mi SSE 5.8 mph - N/A   Clear
5:55 AM 26.4 °F 19.8 °F 23.9 °F 90% 30.07 in 7.0 mi SE 5.8 mph - N/A   Clear
6:15 AM 23.9 °F 16.8 °F 21.7 °F 91% 30.07 in 7.0 mi SSE 5.8 mph - N/A   Clear
6:35 AM 24.8 °F 19.1 °F 22.6 °F 91% 30.07 in 7.0 mi SSE 4.6 mph - N/A   Clear
6:55 AM 24.1 °F 17.0 °F 21.9 °F 91% 30.08 in 7.0 mi SSE 5.8 mph - N/A   Clear
7:35 AM 25.0 °F 17.1 °F 22.3 °F 89% 30.09 in 5.0 mi SSE 6.9 mph - N/A   Clear
7:55 AM 26.4 °F 20.9 °F 23.5 °F 89% 30.09 in 7.0 mi SE 4.6 mph - N/A   Clear
8:15 AM 26.8 °F 21.4 °F 23.5 °F 88% 30.10 in 7.0 mi SE 4.6 mph - N/A   Clear
8:55 AM 28.9 °F 22.8 °F 25.3 °F 86% 30.10 in 7.0 mi SSE 5.8 mph - N/A   Clear
9:15 AM 30.7 °F 23.3 °F 26.4 °F 84% 30.11 in 7.0 mi SSE 8.1 mph - N/A   Clear
9:35 AM 32.0 °F 24.2 °F 27.0 °F 82% 30.10 in 10.0 mi SSE 9.2 mph - N/A   Clear
9:55 AM 33.1 °F 25.5 °F 27.7 °F 81% 30.10 in 10.0 mi SSE 9.2 mph - N/A   Clear
10:15 AM 34.0 °F 26.6 °F 28.0 °F 79% 30.10 in 10.0 mi South 9.2 mph - N/A   Clear
10:35 AM 34.3 °F 27.7 °F 28.2 °F 78% 30.10 in 10.0 mi SSE 8.1 mph - N/A   Clear
10:55 AM 35.2 °F 28.8 °F 28.6 °F 77% 30.09 in 10.0 mi South 8.1 mph - N/A   Clear
11:15 AM 35.6 °F 29.9 °F 28.8 °F 76% 30.08 in 10.0 mi SSE 6.9 mph - N/A   Clear
11:35 AM 35.6 °F 29.2 °F 29.1 °F 77% 30.07 in 10.0 mi SSE 8.1 mph - N/A   Clear
11:55 AM 35.4 °F 27.8 °F 29.3 °F 78% 30.06 in 10.0 mi SSE 10.4 mph - N/A   Clear
12:15 PM 36.5 °F 28.7 °F 29.5 °F 76% 30.05 in 10.0 mi SSE 11.5 mph - N/A   Clear
12:55 PM 37.2 °F 31.2 °F 30.2 °F 76% 30.04 in 10.0 mi SSE 8.1 mph - N/A   Clear
1:15 PM 37.9 °F 30.9 °F 30.9 °F 76% 30.04 in 10.0 mi SSE 10.4 mph - N/A   Clear
1:55 PM 38.3 °F 31.9 °F 31.8 °F 77% 30.02 in 10.0 mi SSE 9.2 mph - N/A   Clear
2:15 PM 38.5 °F 31.6 °F 31.8 °F 77% 30.02 in 10.0 mi SSE 10.4 mph - N/A   Clear
2:35 PM 38.3 °F 31.4 °F 32.0 °F 78% 30.01 in 10.0 mi SSE 10.4 mph - N/A   Clear
2:55 PM 39.4 °F 32.3 °F 32.0 °F 75% 30.01 in 10.0 mi SSE 11.5 mph - N/A   Clear
3:15 PM 40.5 °F 32.8 °F 32.0 °F 72% 29.99 in 10.0 mi SSE 13.8 mph - N/A   Clear
3:35 PM 40.5 °F 33.6 °F 32.2 °F 72% 30.00 in 10.0 mi SSE 11.5 mph - N/A   Clear
3:55 PM 39.9 °F 32.9 °F 32.2 °F 74% 30.00 in 10.0 mi SSE 11.5 mph - N/A   Clear
4:15 PM 39.2 °F 32.0 °F 32.2 °F 76% 30.00 in 10.0 mi SSE 11.5 mph - N/A   Clear
4:35 PM 37.6 °F 29.6 °F 32.0 °F 80% 29.98 in 10.0 mi SSE 12.7 mph - N/A   Clear
4:55 PM 37.4 °F 29.8 °F 32.0 °F 81% 29.97 in 10.0 mi SSE 11.5 mph - N/A   Clear
5:15 PM 36.9 °F 30.1 °F 32.0 °F 83% 29.98 in 10.0 mi SSE 9.2 mph - N/A   Clear
5:35 PM 37.8 °F 30.2 °F 32.0 °F 80% 29.98 in 10.0 mi South 11.5 mph - N/A   Scattered Clouds
5:55 PM 38.3 °F 29.3 °F 31.6 °F 77% 29.97 in 10.0 mi SSE 16.1 mph - N/A   Mostly Cloudy
6:15 PM 38.5 °F 29.9 °F 31.8 °F 77% 29.96 in 10.0 mi South 15.0 mph - N/A   Mostly Cloudy
6:35 PM 39.2 °F 30.2 °F 32.0 °F 75% 29.98 in 10.0 mi South 17.3 mph 23.0 mph N/A   Overcast
6:55 PM 38.3 °F 30.5 °F 32.0 °F 78% 29.99 in 10.0 mi South 12.7 mph - N/A   Scattered Clouds
7:35 PM 39.4 °F 29.8 °F 32.0 °F 75% 30.00 in 10.0 mi South 19.6 mph 23.0 mph N/A   Scattered Clouds
7:55 PM 38.8 °F 30.0 °F 32.0 °F 76% 30.01 in 10.0 mi South 16.1 mph - N/A   Mostly Cloudy
8:15 PM 38.3 °F 30.5 °F 32.0 °F 78% 30.00 in 10.0 mi South 12.7 mph - N/A   Overcast
8:35 PM 37.8 °F 30.2 °F 32.0 °F 80% 30.00 in 10.0 mi South 11.5 mph - N/A   Scattered Clouds
8:55 PM 37.8 °F 29.8 °F 32.0 °F 80% 30.00 in 10.0 mi South 12.7 mph - N/A   Clear
9:15 PM 37.4 °F 30.8 °F 32.0 °F 81% 30.01 in 10.0 mi South 9.2 mph - N/A   Clear
9:35 PM 37.6 °F 30.5 °F 32.0 °F 80% 29.99 in 10.0 mi South 10.4 mph - N/A   Clear
9:55 PM 37.6 °F 30.0 °F 32.0 °F 80% 29.99 in 10.0 mi South 11.5 mph - N/A   Clear
10:15 PM 37.4 °F 29.8 °F 32.0 °F 81% 29.99 in 10.0 mi South 11.5 mph - N/A   Clear
10:35 PM 37.4 °F 30.3 °F 32.0 °F 81% 29.98 in 10.0 mi South 10.4 mph - N/A   Clear
10:55 PM 36.9 °F 28.7 °F 31.8 °F 82% 29.98 in 10.0 mi South 12.7 mph - N/A   Clear
11:55 PM 37.6 °F 31.6 °F 31.3 °F 78% 30.01 in 10.0 mi South 8.1 mph - N/A   Clear